contact:dominique.lefevre@mio.osupytheas.fr, maurice.libes@osupytheas.fr, didier.mallarino@osupytheas.fr
Project:EMSO http://www.emso-fr.org/EMSO-France
Depth: 2436.0 m
Title:EMSO Ligure Ouest : Data MII capteur MICROCAT
DateTime_Computer,Latitude,Longitude,Temperature,Conductivity,Pressure,DateTime_Instrument
DateTime_Computer,Latitude,Longitude,degC,S m-1,dbar,DateTime_Instrument
2023-11-21T00:02:52Z,42.805,6.029,13.3042,4.60113,2470.73,2023-11-21T02:05:20Z
2023-11-21T00:05:55Z,42.805,6.029,13.3045,4.60124,2470.717,2023-11-21T02:08:23Z
2023-11-21T00:08:58Z,42.805,6.029,13.3043,4.60118,2470.679,2023-11-21T02:11:26Z
2023-11-21T00:12:01Z,42.805,6.029,13.3044,4.60113,2470.703,2023-11-21T02:14:29Z
2023-11-21T00:15:04Z,42.805,6.029,13.3046,4.60110,2470.693,2023-11-21T02:17:32Z
2023-11-21T00:18:07Z,42.805,6.029,13.3043,4.60114,2470.717,2023-11-21T02:20:35Z
2023-11-21T00:21:10Z,42.805,6.029,13.3039,4.60120,2470.693,2023-11-21T02:23:38Z
2023-11-21T00:24:13Z,42.805,6.029,13.3043,4.60125,2470.717,2023-11-21T02:26:41Z
2023-11-21T00:27:17Z,42.805,6.029,13.3041,4.60117,2470.693,2023-11-21T02:29:44Z
2023-11-21T00:30:20Z,42.805,6.029,13.3042,4.60117,2470.693,2023-11-21T02:32:47Z
2023-11-21T00:33:23Z,42.805,6.029,13.3041,4.60129,2470.717,2023-11-21T02:35:50Z
2023-11-21T00:36:26Z,42.805,6.029,13.3048,4.60130,2470.717,2023-11-21T02:38:53Z
2023-11-21T00:39:29Z,42.805,6.029,13.3036,4.60109,2470.73,2023-11-21T02:41:57Z
2023-11-21T00:42:32Z,42.805,6.029,13.3033,4.60104,2470.73,2023-11-21T02:45:00Z
2023-11-21T00:45:35Z,42.805,6.029,13.3043,4.60120,2470.707,2023-11-21T02:48:03Z
2023-11-21T00:48:38Z,42.805,6.029,13.3045,4.60117,2470.717,2023-11-21T02:51:06Z
2023-11-21T00:51:41Z,42.805,6.029,13.3040,4.60119,2470.754,2023-11-21T02:54:09Z
2023-11-21T00:54:44Z,42.805,6.029,13.3041,4.60119,2470.693,2023-11-21T02:57:12Z
2023-11-21T00:57:47Z,42.805,6.029,13.3039,4.60120,2470.717,2023-11-21T03:00:15Z
2023-11-21T01:00:50Z,42.805,6.029,13.3046,4.60121,2470.763,2023-11-21T03:03:18Z
2023-11-21T01:03:54Z,42.805,6.029,13.3039,4.60131,2470.74,2023-11-21T03:06:21Z
2023-11-21T01:06:57Z,42.805,6.029,13.3046,4.60133,2470.693,2023-11-21T03:09:24Z
2023-11-21T01:10:00Z,42.805,6.029,13.3043,4.60117,2470.73,2023-11-21T03:12:27Z
2023-11-21T01:13:03Z,42.805,6.029,13.3043,4.60129,2470.73,2023-11-21T03:15:30Z
2023-11-21T01:16:06Z,42.805,6.029,13.3044,4.60115,2470.717,2023-11-21T03:18:34Z
2023-11-21T01:19:09Z,42.805,6.029,13.3044,4.60121,2470.754,2023-11-21T03:21:37Z
2023-11-21T01:22:12Z,42.805,6.029,13.3051,4.60122,2470.717,2023-11-21T03:24:40Z
2023-11-21T01:25:15Z,42.805,6.029,13.3043,4.60121,2470.717,2023-11-21T03:27:43Z
2023-11-21T01:28:18Z,42.805,6.029,13.3041,4.60128,2470.717,2023-11-21T03:30:46Z
2023-11-21T01:31:21Z,42.805,6.029,13.3040,4.60119,2470.74,2023-11-21T03:33:49Z
2023-11-21T01:34:24Z,42.805,6.029,13.3043,4.60132,2470.717,2023-11-21T03:36:52Z
2023-11-21T01:37:27Z,42.805,6.029,13.3045,4.60122,2470.73,2023-11-21T03:39:55Z
2023-11-21T01:40:31Z,42.805,6.029,13.3045,4.60126,2470.717,2023-11-21T03:42:58Z
2023-11-21T01:43:34Z,42.805,6.029,13.3047,4.60122,2470.74,2023-11-21T03:46:01Z
2023-11-21T01:46:37Z,42.805,6.029,13.3044,4.60129,2470.717,2023-11-21T03:49:04Z
2023-11-21T01:49:40Z,42.805,6.029,13.3039,4.60123,2470.717,2023-11-21T03:52:07Z
2023-11-21T01:52:43Z,42.805,6.029,13.3044,4.60123,2470.754,2023-11-21T03:55:11Z
2023-11-21T01:55:46Z,42.805,6.029,13.3054,4.60137,2470.74,2023-11-21T03:58:14Z
2023-11-21T01:58:49Z,42.805,6.029,13.3046,4.60124,2470.73,2023-11-21T04:01:17Z
2023-11-21T02:01:52Z,42.805,6.029,13.3044,4.60116,2470.74,2023-11-21T04:04:20Z
2023-11-21T02:04:55Z,42.805,6.029,13.3049,4.60124,2470.73,2023-11-21T04:07:23Z
2023-11-21T02:07:58Z,42.805,6.029,13.3050,4.60132,2470.717,2023-11-21T04:10:26Z
2023-11-21T02:11:01Z,42.805,6.029,13.3044,4.60132,2470.717,2023-11-21T04:13:29Z
2023-11-21T02:14:04Z,42.805,6.029,13.3046,4.60141,2470.754,2023-11-21T04:16:32Z
2023-11-21T02:17:07Z,42.805,6.029,13.3047,4.60119,2470.717,2023-11-21T04:19:35Z
2023-11-21T02:20:11Z,42.805,6.029,13.3045,4.60125,2470.777,2023-11-21T04:22:38Z
2023-11-21T02:23:14Z,42.805,6.029,13.3049,4.60123,2470.707,2023-11-21T04:25:41Z
2023-11-21T02:26:17Z,42.805,6.029,13.3042,4.60120,2470.754,2023-11-21T04:28:44Z
2023-11-21T02:29:20Z,42.805,6.029,13.3041,4.60127,2470.74,2023-11-21T04:31:48Z
2023-11-21T02:32:23Z,42.805,6.029,13.3047,4.60122,2470.73,2023-11-21T04:34:51Z
2023-11-21T02:35:26Z,42.805,6.029,13.3052,4.60120,2470.777,2023-11-21T04:37:54Z
2023-11-21T02:38:29Z,42.805,6.029,13.3043,4.60131,2470.717,2023-11-21T04:40:57Z
2023-11-21T02:41:32Z,42.805,6.029,13.3045,4.60130,2470.754,2023-11-21T04:44:00Z
2023-11-21T02:44:35Z,42.805,6.029,13.3044,4.60125,2470.754,2023-11-21T04:47:03Z
2023-11-21T02:47:38Z,42.805,6.029,13.3044,4.60144,2470.717,2023-11-21T04:50:06Z
2023-11-21T02:50:41Z,42.805,6.029,13.3046,4.60128,2470.717,2023-11-21T04:53:09Z
2023-11-21T02:53:44Z,42.805,6.029,13.3047,4.60123,2470.707,2023-11-21T04:56:12Z
2023-11-21T02:56:48Z,42.805,6.029,13.3042,4.60134,2470.73,2023-11-21T04:59:15Z
2023-11-21T02:59:51Z,42.805,6.029,13.3040,4.60123,2470.717,2023-11-21T05:02:18Z
2023-11-21T03:02:54Z,42.805,6.029,13.3049,4.60138,2470.74,2023-11-21T05:05:21Z
2023-11-21T03:05:57Z,42.805,6.029,13.3051,4.60122,2470.717,2023-11-21T05:08:24Z
2023-11-21T03:09:00Z,42.805,6.029,13.3043,4.60132,2470.67,2023-11-21T05:11:28Z
2023-11-21T03:12:03Z,42.805,6.029,13.3041,4.60125,2470.693,2023-11-21T05:14:31Z
2023-11-21T03:15:06Z,42.805,6.029,13.3045,4.60136,2470.693,2023-11-21T05:17:34Z
2023-11-21T03:18:09Z,42.805,6.029,13.3046,4.60123,2470.73,2023-11-21T05:20:37Z
2023-11-21T03:21:12Z,42.805,6.029,13.3050,4.60121,2470.73,2023-11-21T05:23:40Z
2023-11-21T03:24:15Z,42.805,6.029,13.3041,4.60123,2470.693,2023-11-21T05:26:43Z
2023-11-21T03:27:18Z,42.805,6.029,13.3049,4.60142,2470.717,2023-11-21T05:29:46Z
2023-11-21T03:30:21Z,42.805,6.029,13.3048,4.60125,2470.754,2023-11-21T05:32:49Z
2023-11-21T03:33:25Z,42.805,6.029,13.3045,4.60127,2470.74,2023-11-21T05:35:52Z
2023-11-21T03:36:28Z,42.805,6.029,13.3052,4.60132,2470.754,2023-11-21T05:38:55Z
2023-11-21T03:39:31Z,42.805,6.029,13.3043,4.60137,2470.693,2023-11-21T05:41:58Z
2023-11-21T03:42:34Z,42.805,6.029,13.3042,4.60131,2470.754,2023-11-21T05:45:01Z
2023-11-21T03:45:37Z,42.805,6.029,13.3048,4.60134,2470.717,2023-11-21T05:48:05Z
2023-11-21T03:48:40Z,42.805,6.029,13.3043,4.60127,2470.707,2023-11-21T05:51:08Z
2023-11-21T03:51:43Z,42.805,6.029,13.3043,4.60125,2470.73,2023-11-21T05:54:11Z
2023-11-21T03:54:46Z,42.805,6.029,13.3046,4.60126,2470.717,2023-11-21T05:57:14Z
2023-11-21T03:57:49Z,42.805,6.029,13.3043,4.60114,2470.693,2023-11-21T06:00:17Z
2023-11-21T04:00:52Z,42.805,6.029,13.3051,4.60118,2470.693,2023-11-21T06:03:20Z
2023-11-21T04:03:55Z,42.805,6.029,13.3038,4.60112,2470.763,2023-11-21T06:06:23Z
2023-11-21T04:06:58Z,42.805,6.029,13.3048,4.60137,2470.73,2023-11-21T06:09:26Z
2023-11-21T04:10:02Z,42.805,6.029,13.3043,4.60129,2470.693,2023-11-21T06:12:29Z
2023-11-21T04:13:05Z,42.805,6.029,13.3038,4.60144,2470.74,2023-11-21T06:15:32Z
2023-11-21T04:16:08Z,42.805,6.029,13.3046,4.60134,2470.707,2023-11-21T06:18:35Z
2023-11-21T04:19:11Z,42.805,6.029,13.3041,4.60127,2470.717,2023-11-21T06:21:39Z
2023-11-21T04:22:14Z,42.805,6.029,13.3045,4.60127,2470.693,2023-11-21T06:24:42Z
2023-11-21T04:25:17Z,42.805,6.029,13.3046,4.60127,2470.693,2023-11-21T06:27:45Z
2023-11-21T04:28:20Z,42.805,6.029,13.3052,4.60123,2470.73,2023-11-21T06:30:48Z
2023-11-21T04:31:23Z,42.805,6.029,13.3046,4.60120,2470.717,2023-11-21T06:33:51Z
2023-11-21T04:34:26Z,42.805,6.029,13.3053,4.60122,2470.73,2023-11-21T06:36:54Z
2023-11-21T04:37:29Z,42.805,6.029,13.3041,4.60110,2470.73,2023-11-21T06:39:57Z
2023-11-21T04:40:32Z,42.805,6.029,13.3051,4.60131,2470.754,2023-11-21T06:43:00Z
2023-11-21T04:43:36Z,42.805,6.029,13.3041,4.60115,2470.717,2023-11-21T06:46:03Z
2023-11-21T04:46:39Z,42.805,6.029,13.3042,4.60112,2470.717,2023-11-21T06:49:06Z
2023-11-21T04:49:42Z,42.805,6.029,13.3047,4.60116,2470.717,2023-11-21T06:52:09Z
2023-11-21T04:52:45Z,42.805,6.029,13.3049,4.60132,2470.73,2023-11-21T06:55:12Z
2023-11-21T04:55:48Z,42.805,6.029,13.3044,4.60112,2470.693,2023-11-21T06:58:16Z
2023-11-21T04:58:51Z,42.805,6.029,13.3050,4.60125,2470.717,2023-11-21T07:01:19Z
2023-11-21T05:01:54Z,42.805,6.029,13.3051,4.60122,2470.707,2023-11-21T07:04:22Z
2023-11-21T05:04:57Z,42.805,6.029,13.3046,4.60119,2470.717,2023-11-21T07:07:25Z
2023-11-21T05:08:00Z,42.805,6.029,13.3050,4.60124,2470.73,2023-11-21T07:10:28Z
2023-11-21T05:11:03Z,42.805,6.029,13.3045,4.60119,2470.693,2023-11-21T07:13:31Z
2023-11-21T05:14:06Z,42.805,6.029,13.3046,4.60118,2470.73,2023-11-21T07:16:34Z
2023-11-21T05:17:09Z,42.805,6.029,13.3046,4.60123,2470.73,2023-11-21T07:19:37Z
2023-11-21T05:20:13Z,42.805,6.029,13.3046,4.60122,2470.679,2023-11-21T07:22:40Z
2023-11-21T05:23:16Z,42.805,6.029,13.3045,4.60119,2470.717,2023-11-21T07:25:43Z
2023-11-21T05:26:19Z,42.805,6.029,13.3051,4.60125,2470.707,2023-11-21T07:28:46Z
2023-11-21T05:29:22Z,42.805,6.029,13.3045,4.60129,2470.707,2023-11-21T07:31:49Z
2023-11-21T05:32:25Z,42.805,6.029,13.3047,4.60133,2470.707,2023-11-21T07:34:53Z
2023-11-21T05:35:28Z,42.805,6.029,13.3043,4.60130,2470.707,2023-11-21T07:37:56Z
2023-11-21T05:38:31Z,42.805,6.029,13.3049,4.60120,2470.717,2023-11-21T07:40:59Z
2023-11-21T05:41:34Z,42.805,6.029,13.3048,4.60125,2470.717,2023-11-21T07:44:02Z
2023-11-21T05:44:38Z,42.805,6.029,13.3043,4.60138,2470.684,2023-11-21T07:47:05Z
2023-11-21T05:47:41Z,42.805,6.029,13.3049,4.60123,2470.693,2023-11-21T07:50:08Z
2023-11-21T05:50:44Z,42.805,6.029,13.3044,4.60127,2470.693,2023-11-21T07:53:11Z
2023-11-21T05:53:47Z,42.805,6.029,13.3043,4.60119,2470.717,2023-11-21T07:56:14Z
2023-11-21T05:56:50Z,42.805,6.029,13.3044,4.60123,2470.67,2023-11-21T07:59:18Z
2023-11-21T05:59:53Z,42.805,6.029,13.3044,4.60125,2470.717,2023-11-21T08:02:21Z
2023-11-21T06:02:56Z,42.805,6.029,13.3051,4.60117,2470.73,2023-11-21T08:05:24Z
2023-11-21T06:05:59Z,42.805,6.029,13.3047,4.60114,2470.707,2023-11-21T08:08:27Z
2023-11-21T06:09:02Z,42.805,6.029,13.3045,4.60126,2470.67,2023-11-21T08:11:30Z
2023-11-21T06:12:05Z,42.805,6.029,13.3039,4.60131,2470.693,2023-11-21T08:14:33Z
2023-11-21T06:15:08Z,42.805,6.029,13.3047,4.60134,2470.703,2023-11-21T08:17:36Z
2023-11-21T06:18:11Z,42.805,6.029,13.3037,4.60113,2470.693,2023-11-21T08:20:39Z
2023-11-21T06:21:15Z,42.805,6.029,13.3045,4.60118,2470.73,2023-11-21T08:23:42Z
2023-11-21T06:24:18Z,42.805,6.029,13.3045,4.60127,2470.67,2023-11-21T08:26:45Z
2023-11-21T06:27:21Z,42.805,6.029,13.3044,4.60129,2470.693,2023-11-21T08:29:48Z
2023-11-21T06:30:24Z,42.805,6.029,13.3037,4.60118,2470.73,2023-11-21T08:32:51Z
2023-11-21T06:33:27Z,42.805,6.029,13.3048,4.60121,2470.693,2023-11-21T08:35:55Z
2023-11-21T06:36:30Z,42.805,6.029,13.3047,4.60128,2470.707,2023-11-21T08:38:58Z
2023-11-21T06:39:33Z,42.805,6.029,13.3045,4.60127,2470.693,2023-11-21T08:42:01Z
2023-11-21T06:42:36Z,42.805,6.029,13.3047,4.60116,2470.67,2023-11-21T08:45:04Z
2023-11-21T06:45:39Z,42.805,6.029,13.3036,4.60110,2470.707,2023-11-21T08:48:07Z
2023-11-21T06:48:42Z,42.805,6.029,13.3046,4.60126,2470.684,2023-11-21T08:51:10Z
2023-11-21T06:51:45Z,42.805,6.029,13.3046,4.60131,2470.684,2023-11-21T08:54:13Z
2023-11-21T06:54:48Z,42.805,6.029,13.3051,4.60127,2470.67,2023-11-21T08:57:16Z
2023-11-21T06:57:52Z,42.805,6.029,13.3050,4.60125,2470.693,2023-11-21T09:00:19Z
2023-11-21T07:00:55Z,42.805,6.029,13.3051,4.60125,2470.693,2023-11-21T09:03:22Z
2023-11-21T07:03:58Z,42.805,6.029,13.3051,4.60117,2470.633,2023-11-21T09:06:25Z
2023-11-21T07:07:01Z,42.805,6.029,13.3043,4.60117,2470.679,2023-11-21T09:09:28Z
2023-11-21T07:10:04Z,42.805,6.029,13.3048,4.60130,2470.693,2023-11-21T09:12:32Z
2023-11-21T07:13:07Z,42.805,6.029,13.3046,4.60125,2470.67,2023-11-21T09:15:35Z
2023-11-21T07:16:10Z,42.805,6.029,13.3046,4.60123,2470.67,2023-11-21T09:18:38Z
2023-11-21T07:19:13Z,42.805,6.029,13.3047,4.60128,2470.707,2023-11-21T09:21:41Z
2023-11-21T07:22:16Z,42.805,6.029,13.3046,4.60117,2470.717,2023-11-21T09:24:44Z
2023-11-21T07:25:19Z,42.805,6.029,13.3048,4.60118,2470.693,2023-11-21T09:27:47Z
2023-11-21T07:28:22Z,42.805,6.029,13.3048,4.60122,2470.67,2023-11-21T09:30:50Z
2023-11-21T07:31:25Z,42.805,6.029,13.3045,4.60122,2470.684,2023-11-21T09:33:53Z
2023-11-21T07:34:29Z,42.805,6.029,13.3045,4.60118,2470.693,2023-11-21T09:36:56Z
2023-11-21T07:37:32Z,42.805,6.029,13.3049,4.60119,2470.693,2023-11-21T09:39:59Z
2023-11-21T07:40:35Z,42.805,6.029,13.3047,4.60120,2470.73,2023-11-21T09:43:02Z
2023-11-21T07:43:38Z,42.805,6.029,13.3043,4.60129,2470.693,2023-11-21T09:46:05Z
2023-11-21T07:46:41Z,42.805,6.029,13.3042,4.60121,2470.67,2023-11-21T09:49:09Z
2023-11-21T07:49:44Z,42.805,6.029,13.3042,4.60117,2470.67,2023-11-21T09:52:12Z
2023-11-21T07:52:47Z,42.805,6.029,13.3047,4.60125,2470.693,2023-11-21T09:55:15Z
2023-11-21T07:55:50Z,42.805,6.029,13.3049,4.60121,2470.693,2023-11-21T09:58:18Z
2023-11-21T07:58:53Z,42.805,6.029,13.3043,4.60122,2470.693,2023-11-21T10:01:21Z
2023-11-21T08:01:56Z,42.805,6.029,13.3043,4.60115,2470.717,2023-11-21T10:04:24Z
2023-11-21T08:04:59Z,42.805,6.029,13.3043,4.60123,2470.693,2023-11-21T10:07:27Z
2023-11-21T08:08:02Z,42.805,6.029,13.3048,4.60128,2470.693,2023-11-21T10:10:30Z
2023-11-21T08:11:06Z,42.805,6.029,13.3045,4.60130,2470.693,2023-11-21T10:13:33Z
2023-11-21T08:14:09Z,42.805,6.029,13.3043,4.60127,2470.693,2023-11-21T10:16:36Z
2023-11-21T08:17:12Z,42.805,6.029,13.3046,4.60131,2470.73,2023-11-21T10:19:39Z
2023-11-21T08:20:15Z,42.805,6.029,13.3045,4.60137,2470.693,2023-11-21T10:22:43Z
2023-11-21T08:23:18Z,42.805,6.029,13.3046,4.60124,2470.693,2023-11-21T10:25:46Z
2023-11-21T08:26:21Z,42.805,6.029,13.3048,4.60125,2470.693,2023-11-21T10:28:49Z
2023-11-21T08:29:24Z,42.805,6.029,13.3052,4.60131,2470.717,2023-11-21T10:31:52Z
2023-11-21T08:32:27Z,42.805,6.029,13.3046,4.60127,2470.73,2023-11-21T10:34:55Z
2023-11-21T08:35:30Z,42.805,6.029,13.3048,4.60125,2470.693,2023-11-21T10:37:58Z
2023-11-21T08:38:33Z,42.805,6.029,13.3047,4.60125,2470.707,2023-11-21T10:41:01Z
2023-11-21T08:41:36Z,42.805,6.029,13.3046,4.60144,2470.67,2023-11-21T10:44:04Z
2023-11-21T08:44:40Z,42.805,6.029,13.3044,4.60128,2470.67,2023-11-21T10:47:07Z
2023-11-21T08:47:43Z,42.805,6.029,13.3045,4.60123,2470.693,2023-11-21T10:50:10Z
2023-11-21T08:50:46Z,42.805,6.029,13.3048,4.60122,2470.717,2023-11-21T10:53:13Z
2023-11-21T08:53:49Z,42.805,6.029,13.3046,4.60126,2470.73,2023-11-21T10:56:16Z
2023-11-21T08:56:52Z,42.805,6.029,13.3045,4.60128,2470.707,2023-11-21T10:59:20Z
2023-11-21T08:59:55Z,42.805,6.029,13.3045,4.60132,2470.693,2023-11-21T11:02:23Z
2023-11-21T09:02:58Z,42.805,6.029,13.3045,4.60128,2470.754,2023-11-21T11:05:26Z
2023-11-21T09:06:01Z,42.805,6.029,13.3043,4.60129,2470.717,2023-11-21T11:08:29Z
2023-11-21T09:09:04Z,42.805,6.029,13.3048,4.60125,2470.717,2023-11-21T11:11:32Z
2023-11-21T09:12:07Z,42.805,6.029,13.3051,4.60122,2470.73,2023-11-21T11:14:35Z
2023-11-21T09:15:10Z,42.805,6.029,13.3045,4.60127,2470.693,2023-11-21T11:17:38Z
2023-11-21T09:18:14Z,42.805,6.029,13.3051,4.60132,2470.73,2023-11-21T11:20:41Z
2023-11-21T09:21:17Z,42.805,6.029,13.3048,4.60132,2470.67,2023-11-21T11:23:44Z
2023-11-21T09:24:20Z,42.805,6.029,13.3046,4.60132,2470.693,2023-11-21T11:26:47Z
2023-11-21T09:27:23Z,42.805,6.029,13.3048,4.60127,2470.717,2023-11-21T11:29:50Z
2023-11-21T09:30:26Z,42.805,6.029,13.3053,4.60128,2470.693,2023-11-21T11:32:54Z
2023-11-21T09:33:29Z,42.805,6.029,13.3048,4.60122,2470.693,2023-11-21T11:35:57Z
2023-11-21T09:36:32Z,42.805,6.029,13.3048,4.60129,2470.74,2023-11-21T11:39:00Z
2023-11-21T09:39:35Z,42.805,6.029,13.3043,4.60117,2470.707,2023-11-21T11:42:03Z
2023-11-21T09:42:38Z,42.805,6.029,13.3041,4.60127,2470.73,2023-11-21T11:45:06Z
2023-11-21T09:45:41Z,42.805,6.029,13.3046,4.60130,2470.73,2023-11-21T11:48:09Z
2023-11-21T09:48:44Z,42.805,6.029,13.3048,4.60135,2470.717,2023-11-21T11:51:12Z
2023-11-21T09:51:47Z,42.805,6.029,13.3046,4.60127,2470.73,2023-11-21T11:54:15Z
2023-11-21T09:54:51Z,42.805,6.029,13.3047,4.60128,2470.74,2023-11-21T11:57:18Z
2023-11-21T09:57:54Z,42.805,6.029,13.3047,4.60131,2470.693,2023-11-21T12:00:21Z
2023-11-21T10:00:57Z,42.805,6.029,13.3048,4.60132,2470.74,2023-11-21T12:03:24Z
2023-11-21T10:04:00Z,42.805,6.029,13.3046,4.60142,2470.717,2023-11-21T12:06:28Z
2023-11-21T10:07:03Z,42.805,6.029,13.3051,4.60132,2470.763,2023-11-21T12:09:31Z
2023-11-21T10:10:06Z,42.805,6.029,13.3046,4.60126,2470.777,2023-11-21T12:12:34Z
2023-11-21T10:13:09Z,42.805,6.029,13.3046,4.60134,2470.777,2023-11-21T12:15:37Z
2023-11-21T10:16:12Z,42.805,6.029,13.3051,4.60130,2470.74,2023-11-21T12:18:40Z
2023-11-21T10:19:15Z,42.805,6.029,13.3046,4.60128,2470.763,2023-11-21T12:21:43Z
2023-11-21T10:22:18Z,42.805,6.029,13.3043,4.60126,2470.754,2023-11-21T12:24:46Z
2023-11-21T10:25:21Z,42.805,6.029,13.3046,4.60121,2470.763,2023-11-21T12:27:49Z
2023-11-21T10:28:25Z,42.805,6.029,13.3047,4.60126,2470.754,2023-11-21T12:30:52Z
2023-11-21T10:31:28Z,42.805,6.029,13.3047,4.60132,2470.717,2023-11-21T12:33:55Z
2023-11-21T10:34:31Z,42.805,6.029,13.3046,4.60132,2470.787,2023-11-21T12:36:58Z
2023-11-21T10:37:34Z,42.805,6.029,13.3042,4.60125,2470.763,2023-11-21T12:40:01Z
2023-11-21T10:40:37Z,42.805,6.029,13.3044,4.60125,2470.8,2023-11-21T12:43:05Z
2023-11-21T10:43:40Z,42.805,6.029,13.3048,4.60132,2470.8,2023-11-21T12:46:08Z
2023-11-21T10:46:43Z,42.805,6.029,13.3053,4.60140,2470.74,2023-11-21T12:49:11Z
2023-11-21T10:49:46Z,42.805,6.029,13.3045,4.60130,2470.787,2023-11-21T12:52:14Z
2023-11-21T10:52:49Z,42.805,6.029,13.3043,4.60130,2470.777,2023-11-21T12:55:17Z
2023-11-21T10:55:52Z,42.805,6.029,13.3043,4.60124,2470.8,2023-11-21T12:58:20Z
2023-11-21T10:58:55Z,42.805,6.029,13.3054,4.60139,2470.787,2023-11-21T13:01:23Z
2023-11-21T11:01:58Z,42.805,6.029,13.3056,4.60137,2470.8,2023-11-21T13:04:26Z
2023-11-21T11:05:02Z,42.805,6.029,13.3043,4.60128,2470.81,2023-11-21T13:07:29Z
2023-11-21T11:08:05Z,42.805,6.029,13.3046,4.60126,2470.787,2023-11-21T13:10:32Z
2023-11-21T11:11:08Z,42.805,6.029,13.3047,4.60127,2470.763,2023-11-21T13:13:35Z
2023-11-21T11:14:11Z,42.805,6.029,13.3046,4.60125,2470.787,2023-11-21T13:16:39Z
2023-11-21T11:17:14Z,42.805,6.029,13.3043,4.60125,2470.787,2023-11-21T13:19:42Z
2023-11-21T11:20:17Z,42.805,6.029,13.3046,4.60140,2470.787,2023-11-21T13:22:45Z
2023-11-21T11:23:20Z,42.805,6.029,13.3046,4.60123,2470.787,2023-11-21T13:25:48Z
2023-11-21T11:26:23Z,42.805,6.029,13.3050,4.60122,2470.763,2023-11-21T13:28:51Z
2023-11-21T11:29:26Z,42.805,6.029,13.3047,4.60129,2470.777,2023-11-21T13:31:54Z
2023-11-21T11:32:28Z,42.805,6.029,13.3047,4.60125,2470.787,2023-11-21T13:34:56Z
2023-11-21T11:35:31Z,42.805,6.029,13.3052,4.60137,2470.8,2023-11-21T13:37:59Z
2023-11-21T11:38:34Z,42.805,6.029,13.3044,4.60134,2470.81,2023-11-21T13:41:02Z
2023-11-21T11:41:37Z,42.805,6.029,13.3046,4.60125,2470.787,2023-11-21T13:44:05Z
2023-11-21T11:44:40Z,42.805,6.029,13.3048,4.60130,2470.787,2023-11-21T13:47:08Z
2023-11-21T11:47:43Z,42.805,6.029,13.3047,4.60129,2470.81,2023-11-21T13:50:11Z
2023-11-21T11:50:47Z,42.805,6.029,13.3043,4.60128,2470.787,2023-11-21T13:53:14Z
2023-11-21T11:53:50Z,42.805,6.029,13.3051,4.60131,2470.787,2023-11-21T13:56:17Z
2023-11-21T11:56:53Z,42.805,6.029,13.3043,4.60126,2470.787,2023-11-21T13:59:20Z
2023-11-21T11:59:56Z,42.805,6.029,13.3050,4.60127,2470.847,2023-11-21T14:02:24Z
2023-11-21T12:02:59Z,42.805,6.029,13.3043,4.60134,2470.81,2023-11-21T14:05:27Z
2023-11-21T12:06:02Z,42.805,6.029,13.3043,4.60125,2470.81,2023-11-21T14:08:30Z
2023-11-21T12:09:05Z,42.805,6.029,13.3041,4.60133,2470.833,2023-11-21T14:11:33Z
2023-11-21T12:12:08Z,42.805,6.029,13.3048,4.60128,2470.824,2023-11-21T14:14:36Z
2023-11-21T12:15:11Z,42.805,6.029,13.3044,4.60125,2470.787,2023-11-21T14:17:39Z
2023-11-21T12:18:14Z,42.805,6.029,13.3045,4.60130,2470.81,2023-11-21T14:20:42Z
2023-11-21T12:21:17Z,42.805,6.029,13.3047,4.60130,2470.833,2023-11-21T14:23:45Z
2023-11-21T12:24:21Z,42.805,6.029,13.3043,4.60124,2470.847,2023-11-21T14:26:48Z
2023-11-21T12:27:24Z,42.805,6.029,13.3047,4.60130,2470.847,2023-11-21T14:29:51Z
2023-11-21T12:30:27Z,42.805,6.029,13.3051,4.60130,2470.833,2023-11-21T14:32:54Z
2023-11-21T12:33:30Z,42.805,6.029,13.3046,4.60127,2470.81,2023-11-21T14:35:58Z
2023-11-21T12:36:33Z,42.805,6.029,13.3051,4.60123,2470.81,2023-11-21T14:39:01Z
2023-11-21T12:39:36Z,42.805,6.029,13.3046,4.60127,2470.833,2023-11-21T14:42:04Z
2023-11-21T12:42:39Z,42.805,6.029,13.3043,4.60132,2470.81,2023-11-21T14:45:07Z
2023-11-21T12:45:42Z,42.805,6.029,13.3046,4.60122,2470.81,2023-11-21T14:48:10Z
2023-11-21T12:48:45Z,42.805,6.029,13.3043,4.60127,2470.81,2023-11-21T14:51:13Z
2023-11-21T12:51:48Z,42.805,6.029,13.3043,4.60130,2470.833,2023-11-21T14:54:16Z
2023-11-21T12:54:51Z,42.805,6.029,13.3043,4.60121,2470.847,2023-11-21T14:57:19Z
2023-11-21T12:57:55Z,42.805,6.029,13.3043,4.60125,2470.833,2023-11-21T15:00:22Z
2023-11-21T13:00:58Z,42.805,6.029,13.3042,4.60121,2470.833,2023-11-21T15:03:25Z
2023-11-21T13:04:01Z,42.805,6.029,13.3046,4.60125,2470.871,2023-11-21T15:06:28Z
2023-11-21T13:07:04Z,42.805,6.029,13.3048,4.60132,2470.847,2023-11-21T15:09:31Z
2023-11-21T13:10:07Z,42.805,6.029,13.3043,4.60119,2470.824,2023-11-21T15:12:35Z
2023-11-21T13:13:10Z,42.805,6.029,13.3045,4.60125,2470.81,2023-11-21T15:15:38Z
2023-11-21T13:16:13Z,42.805,6.029,13.3043,4.60125,2470.857,2023-11-21T15:18:41Z
2023-11-21T13:19:16Z,42.805,6.029,13.3043,4.60119,2470.81,2023-11-21T15:21:44Z
2023-11-21T13:22:19Z,42.805,6.029,13.3043,4.60125,2470.81,2023-11-21T15:24:47Z
2023-11-21T13:25:22Z,42.805,6.029,13.3041,4.60120,2470.847,2023-11-21T15:27:50Z
2023-11-21T13:28:25Z,42.805,6.029,13.3046,4.60131,2470.847,2023-11-21T15:30:53Z
2023-11-21T13:31:27Z,42.805,6.029,13.3045,4.60127,2470.81,2023-11-21T15:33:55Z
2023-11-21T13:34:30Z,42.805,6.029,13.3042,4.60131,2470.81,2023-11-21T15:36:58Z
2023-11-21T13:37:33Z,42.805,6.029,13.3044,4.60126,2470.824,2023-11-21T15:40:01Z
2023-11-21T13:40:36Z,42.805,6.029,13.3044,4.60125,2470.857,2023-11-21T15:43:04Z
2023-11-21T13:43:40Z,42.805,6.029,13.3041,4.60121,2470.847,2023-11-21T15:46:07Z
2023-11-21T13:46:43Z,42.805,6.029,13.3043,4.60132,2470.847,2023-11-21T15:49:10Z
2023-11-21T13:49:46Z,42.805,6.029,13.3043,4.60121,2470.81,2023-11-21T15:52:13Z
2023-11-21T13:52:49Z,42.805,6.029,13.3048,4.60132,2470.847,2023-11-21T15:55:17Z
2023-11-21T13:55:52Z,42.805,6.029,13.3040,4.60126,2470.833,2023-11-21T15:58:20Z
2023-11-21T13:58:55Z,42.805,6.029,13.3043,4.60125,2470.81,2023-11-21T16:01:23Z
2023-11-21T14:01:58Z,42.805,6.029,13.3040,4.60125,2470.857,2023-11-21T16:04:26Z
2023-11-21T14:05:01Z,42.805,6.029,13.3045,4.60127,2470.847,2023-11-21T16:07:29Z
2023-11-21T14:08:04Z,42.805,6.029,13.3046,4.60124,2470.833,2023-11-21T16:10:32Z
2023-11-21T14:11:07Z,42.805,6.029,13.3044,4.60129,2470.833,2023-11-21T16:13:35Z
2023-11-21T14:14:10Z,42.805,6.029,13.3043,4.60125,2470.833,2023-11-21T16:16:38Z
2023-11-21T14:17:14Z,42.805,6.029,13.3042,4.60119,2470.81,2023-11-21T16:19:41Z
2023-11-21T14:20:17Z,42.805,6.029,13.3046,4.60125,2470.833,2023-11-21T16:22:44Z
2023-11-21T14:23:20Z,42.805,6.029,13.3044,4.60123,2470.871,2023-11-21T16:25:47Z
2023-11-21T14:26:23Z,42.805,6.029,13.3043,4.60119,2470.847,2023-11-21T16:28:51Z
2023-11-21T14:29:26Z,42.805,6.029,13.3047,4.60122,2470.857,2023-11-21T16:31:54Z
2023-11-21T14:32:29Z,42.805,6.029,13.3043,4.60121,2470.824,2023-11-21T16:34:57Z
2023-11-21T14:35:32Z,42.805,6.029,13.3037,4.60130,2470.847,2023-11-21T16:38:00Z
2023-11-21T14:38:35Z,42.805,6.029,13.3039,4.60125,2470.871,2023-11-21T16:41:03Z
2023-11-21T14:41:38Z,42.805,6.029,13.3041,4.60128,2470.833,2023-11-21T16:44:06Z
2023-11-21T14:44:41Z,42.805,6.029,13.3041,4.60121,2470.894,2023-11-21T16:47:09Z
2023-11-21T14:47:44Z,42.805,6.029,13.3045,4.60132,2470.847,2023-11-21T16:50:12Z
2023-11-21T14:50:47Z,42.805,6.029,13.3044,4.60125,2470.871,2023-11-21T16:53:15Z
2023-11-21T14:53:51Z,42.805,6.029,13.3041,4.60122,2470.833,2023-11-21T16:56:18Z
2023-11-21T14:56:54Z,42.805,6.029,13.3040,4.60125,2470.857,2023-11-21T16:59:21Z
2023-11-21T14:59:57Z,42.805,6.029,13.3043,4.60125,2470.833,2023-11-21T17:02:24Z
2023-11-21T15:03:00Z,42.805,6.029,13.3042,4.60119,2470.833,2023-11-21T17:05:28Z